Find Kosmos-1795

NORAD ID: 17139 Int'l Des: 1986-092 Owner: UNKS Country: SU operational
LEOCIRCULAR

Aktuelle Ansicht

3D-Globus wird geladen...

About Kosmos-1795

Kosmos-1795 (NORAD 17139) is a satellite launched Nov 21, 1986 by UNKS of SU. It operates in LEO, CIRCULAR orbit with a mass of 60.00 kg.

Nächste Überflüge

Passes for default location (London). Set your location on the main map for personalized predictions.

Höhenverlauf

Loading altitude history...

Zweizeiliger Elementsatz

1 17139U 86092B 26194.91452497 -.00000020 00000-0 -31157-4 0 9994
2 17139 74.0151 359.3366 0009850 162.1325 4.6041 12.47816299805870
Epoch: 13. Juli 2026 • Age: 15 hours

Aktueller Status

Höhe 1468.8 km
Apogäum / Perigäum N/A
Geschwindigkeit 7.13 km/s
Subsatellitenpunkt -0.63°S, 45.02°E
Startdatum 21. Nov. 1986
Alter 39.6 years
Typ other

Technische Details

Klassifizierung Payload
Masse 60.00 kg
Trockenmasse 60.00 kg
Gesamtmasse 60.00 kg
Länge 0.80 m
Durchmesser 0.80 m
Spannweite 0.80 m
Form Poly
Hersteller NPOPM
Bus-Typ Strela-1 11F625
Phasenstatus In Orbit
Besitzer/Staat UNKS/SU

Most Searched